Location: Unspecified
(0.0000°N, 0.0000°E)
Time: 18:28:07
(UTC+00:00)

Explorer 7 - Visible Passes

Search period start: 18 April 2019 00:00
Search period end: 28 April 2019 00:00
Orbit: 485 x 680 km, 50.3° (Epoch: 17 April)

Date Brightness Start Highest point End Pass type
(mag) Time Alt. Az. Time Alt. Az. Time Alt. Az.
18 Apr 10.0 19:30:43 10° WSW 19:31:48 11° SW 19:32:55 10° SW visible
20 Apr 9.8 04:17:54 10° SSE 04:19:11 11° SE 04:20:27 10° ESE visible
21 Apr 9.0 04:21:56 15° S 04:24:23 23° SE 04:27:44 10° ENE visible
22 Apr 7.7 04:27:52 31° S 04:29:31 47° SE 04:33:33 10° NE visible
23 Apr 6.8 04:33:46 56° WSW 04:34:36 77° NW 04:38:45 10° NNE visible
24 Apr 7.6 04:39:33 34° WNW 04:39:38 34° NW 04:43:26 10° NNE visible
25 Apr 8.7 04:45:13 17° NW 04:45:13 17° NW 04:47:25 10° NNW visible
